This demonstration page uses our WeatherBlox Daily Observations layout. Learn more.

Left ArrowRight Arrow

53.62937, 11.41316

Hourly Observations for September 11, 2015

Temp ( °F °C ) Dew Point ( °F °C ) Humidity (%) Winds ( mph kmh ) Pressure ( in mb ) Visibility ( mi km ) Precip ( " mm )
6:20 am 06:20 Cloudy with Light Rain 54 12 50 10 88 88 ENE 10 17 30.21 1023 30 48 N/A
6:50 am 06:50 Mostly Cloudy with Light Rain 52 11 50 10 94 94 ENE 9 15 30.21 1023 30 48 N/A
7:20 am 07:20 Mostly Cloudy 52 11 50 10 94 94 ENE 8 13 30.21 1023 30 48 N/A
7:50 am 07:50 Mostly Cloudy 54 12 52 11 94 94 ENE 9 15 30.21 1023 30 48 N/A
8:20 am 08:20 Mostly Cloudy 54 12 52 11 94 94 ENE 9 15 30.21 1023 30 48 N/A
8:50 am 08:50 Mostly Cloudy 54 12 52 11 94 94 ENE 12 19 30.21 1023 30 48 N/A
9:20 am 09:20 Mostly Cloudy with Light Rain 54 12 52 11 94 94 NE 7 11 30.18 1022 30 48 N/A
9:50 am 09:50 Mostly Cloudy 55 13 52 11 88 88 E 12 19 30.21 1023 30 48 N/A
10:20 am 10:20 Mostly Cloudy 55 13 54 12 94 94 ENE 13 20 30.21 1023 30 48 N/A
10:50 am 10:50 Mostly Cloudy 55 13 52 11 88 88 ENE 14 22 30.21 1023 30 48 N/A
11:20 am 11:20 Mostly Cloudy 55 13 52 11 88 88 E 10 17 30.21 1023 30 48 N/A
11:50 am 11:50 Cloudy 55 13 52 11 88 88 E 9 15 30.21 1023 30 48 N/A
12:20 pm 12:20 Cloudy 55 13 54 12 94 94 E 10 17 30.21 1023 30 48 N/A
12:50 pm 12:50 Cloudy 55 13 54 12 94 94 E 12 19 30.18 1022 30 48 N/A
1:20 pm 13:20 Cloudy 57 14 54 12 88 88 E 10 17 30.18 1022 30 48 N/A
1:50 pm 13:50 Cloudy 57 14 54 12 88 88 E 9 15 30.18 1022 30 48 N/A
2:20 pm 14:20 Cloudy 57 14 54 12 88 88 E 12 19 30.18 1022 30 48 N/A
2:50 pm 14:50 Cloudy 59 15 54 12 82 82 E 12 19 30.18 1022 30 48 N/A
3:20 pm 15:20 Cloudy 59 15 54 12 82 82 E 12 19 30.18 1022 30 48 N/A
3:50 pm 15:50 Cloudy 59 15 54 12 82 82 E 14 22 30.15 1021 30 48 N/A
4:20 pm 16:20 Cloudy 59 15 54 12 82 82 E 13 20 30.15 1021 30 48 N/A
4:50 pm 16:50 Cloudy 59 15 54 12 82 82 E 13 20 30.15 1021 30 48 N/A
5:20 pm 17:20 Mostly Cloudy 59 15 54 12 82 82 E 12 19 30.15 1021 30 48 N/A
5:50 pm 17:50 Mostly Cloudy 59 15 55 13 88 88 E 10 17 30.15 1021 30 48 N/A
6:20 pm 18:20 Cloudy 57 14 55 13 94 94 E 10 17 30.15 1021 30 48 N/A
6:50 pm 18:50 Mostly Cloudy 57 14 55 13 94 94 E 7 11 30.15 1021 30 48 N/A

Powered by AerisWeather